Cloud_Cover
8 100 100 97 56 78 100 75 92 5 17 100 100 5 0 0 0 0 0 0 0 0 0 0 0 0 0 0 0 0 0 0 0 0 0 0 0 0 0 0 0 0 0 1 3 2 100 41 5
20 100 100 66 86 100 98 100 5 5 21 100 99 5 3 0 0 0 0 0 0 0 0 0 0 0 0 0 0 0 0 0 0 0 0 0 0 0 0 0 0 0 0 5 0 8 94 10 3
6 100 98 59 52 100 100 93 7 13 6 98 100 71 1 0 0 3 19 0 0 0 0 0 11 21 0 0 0 0 0 0 0 0 0 0 0 0 0 0 0 0 0 1 0 99 56 1 0
84 99 95 67 98 100 100 100 100 70 100 85 100 70 6 5 0 49 96 0 0 0 0 11 18 100 30 0 0 0 0 0 0 0 0 0 0 0 0 0 0 0 0 0 2 39 0 0 0
100 100 83 5 96 71 100 57 9 9 100 92 91 100 100 68 0 38 100 3 0 0 0 0 36 100 60 0 0 0 0 0 0 0 0 0 0 0 0 0 0 0 0 0 0 0 0 0 0
100 100 100 6 97 5 52 100 100 10 8 5 51 33 100 100 80 5 77 25 0 0 0 3 22 30 15 4 0 0 0 0 0 0 0 0 0 0 0 0 0 0 0 0 0 0 0 0 0
100 100 81 5 98 100 99 61 100 100 100 9 29 17 100 100 7 56 58 16 5 0 0 0 4 29 15 2 0 0 0 0 0 0 0 0 0 0 0 0 0 0 0 0 0 0 0 0 0
100 100 100 41 56 100 100 100 100 100 100 92 97 5 6 5 4 10 100 32 32 16 4 1 0 1 13 12 5 0 0 0 0 0 0 0 6 0 0 0 0 0 0 0 0 0 0 0 0
100 100 97 90 65 100 100 100 70 100 100 100 99 5 16 4 1 1 0 5 21 16 4 2 0 0 0 0 7 32 5 1 9 0 0 68 0 0 0 0 0 0 0 0 0 0 0 0 0
100 100 94 97 100 100 100 100 100 100 100 85 48 96 16 5 4 0 0 5 52 97 87 4 12 3 0 0 1 0 0 0 0 0 0 0 2 0 0 0 0 0 0 0 0 0 0 0 0
100 42 100 100 100 100 100 100 41 85 100 73 100 100 66 5 0 0 0 4 6 63 100 51 5 5 5 3 4 0 0 0 0 0 0 0 0 0 0 0 0 0 0 0 0 0 0 0 0
100 100 100 100 100 100 100 100 100 99 100 53 63 65 100 100 5 8 58 65 50 19 11 32 40 17 9 8 1 0 0 0 0 0 0 0 0 0 0 3 1 0 0 0 0 0 0 0 0
99 100 100 100 100 100 100 100 100 77 100 100 100 100 97 5 74 39 4 23 91 96 38 5 53 100 84 67 90 4 0 0 0 0 0 0 2 0 0 0 1 3 0 0 0 0 0 0 0
25 100 100 100 100 100 29 96 100 76 6 9 5 56 61 5 25 97 53 5 100 92 100 12 0 20 13 10 20 99 8 5 5 3 0 0 0 0 0 0 0 3 3 0 0 0 0 0 0
98 53 100 100 100 100 9 74 100 99 69 62 36 5 5 6 8 98 79 5 5 6 35 99 49 0 93 28 5 49 100 31 14 5 3 4 0 0 0 0 0 0 3 5 0 3 0 0 3
100 100 100 100 100 100 25 79 78 66 9 5 35 68 100 23 5 57 99 14 47 100 44 36 97 83 38 56 42 39 32 83 85 20 13 5 0 5 5 0 0 0 0 0 0 0 0 0 0
83 100 100 100 100 100 100 100 100 100 98 80 91 66 25 100 100 100 99 100 68 51 17 8 9 99 100 100 72 39 95 30 98 99 12 18 5 5 4 5 4 1 0 0 0 3 4 4 4
100 100 66 100 100 100 100 90 100 100 78 36 18 60 96 96 91 90 100 100 88 83 88 83 25 45 100 100 100 100 93 98 70 20 72 76 20 5 16 0 0 1 0 0 0 0 0 1 2
100 99 48 100 100 100 100 100 100 100 100 100 100 62 5 49 84 89 99 100 100 100 100 87 49 88 92 100 100 100 100 100 100 100 35 35 100 86 11 5 3 0 0 0 0 0 0 0 0
100 100 100 100 100 100 100 100 100 100 94 100 100 100 100 100 100 50 32 96 100 100 100 97 47 45 59 41 95 100 100 99 100 100 100 100 55 93 100 29 5 5 0 0 0 0 0 0 0
100 100 100 100 100 96 100 100 100 100 100 100 100 100 100 100 100 100 100 100 97 76 60 54 5 2 6 10 24 84 97 100 95 72 100 100 100 100 43 41 96 30 5 5 0 1 2 0 0
100 98 100 100 100 58 99 100 100 100 100 100 100 96 58 96 100 62 96 100 100 100 100 100 100 88 56 14 6 5 5 6 61 100 42 65 72 100 100 100 45 38 14 5 5 5 5 0 0
100 100 100 100 100 100 100 59 5 8 79 100 100 100 100 100 100 100 72 34 16 6 5 44 21 4 5 5 2 2 5 5 5 58 99 100 100 100 100 100 100 99 92 10 37 30 5 2 5
100 100 100 100 100 92 86 100 5 5 6 5 5 5 5 5 36 11 5 8 18 15 16 8 7 5 3 5 4 68 9 0 0 0 21 100 84 97 98 97 62 100 100 58 34 58 19 100 95
100 100 100 100 100 100 80 100 10 25 37 64 10 10 17 4 2 5 3 0 0 1 2 4 0 2 3 4 0 0 4 5 0 0 21 0 41 100 100 100 100 100 100 100 100 87 91 100 100
100 100 100 100 100 100 100 100 100 100 50 59 58 90 62 16 5 5 5 0 0 0 3 0 0 0 0 0 0 0 0 0 0 4 9 98 91 30 100 100 93 94 100 99 100 99 100 96 100
100 100 100 100 100 100 100 100 100 100 100 98 73 95 19 5 4 2 0 0 0 0 0 0 0 0 0 0 0 0 0 0 0 0 13 100 100 100 100 99 100 93 100 94 100 98 100 82 100
100 100 100 100 100 100 100 100 100 100 92 12 0 2 5 5 5 2 1 0 0 0 0 0 0 0 0 0 0 0 0 0 0 0 3 18 5 87 100 100 100 100 100 100 100 100 100 100 98
45 100 48 7 4 0 0 2 15 0 0 0 0 1 4 5 4 1 3 3 0 0 0 0 0 0 0 0 0 0 0 0 0 0 0 11 25 5 26 47 100 51 89 100 100 100 87 100 100
0 2 3 0 2 0 0 3 0 0 0 0 0 0 0 0 2 5 5 5 4 0 0 0 0 0 0 0 0 0 0 0 0 0 0 0 56 72 98 72 42 95 100 54 100 100 100 100 100